Location: Vancouver
(49.2500°N, 123.1330°W)
Time: 01:12:27
(UTC-08:00)

ISS - Visible Passes

Search period start: 28 January 2015 00:00
Search period end: 07 February 2015 00:00
Orbit: 402 x 410 km, 51.6° (Epoch: 28 January)

Date Brightness Start Highest point End Pass type
(mag) Time Alt. Az. Time Alt. Az. Time Alt. Az.
05 Feb -1.3 19:24:10 10° SSW 19:25:32 20° S 19:25:32 20° S visible
06 Feb -1.6 18:32:53 10° S 18:35:14 19° SE 18:35:59 17° ESE visible
06 Feb -0.3 20:08:06 10° WSW 20:08:41 14° WSW 20:08:41 14° WSW visible
